TimeCST,TemperatureF,Dew PointF,Humidity,Sea Level PressureIn,VisibilityMPH,Wind Direction,Wind SpeedMPH,Gust SpeedMPH,PrecipitationIn,Events,Conditions,WindDirDegrees,DateUTC
12:48 AM,44.6,42.8,93,30.34,9.0,South,4.6,-,N/A,,Overcast,170,2011-11-24 06:48:00
12:53 AM,45.0,42.1,90,30.34,9.0,South,4.6,-,N/A,,Overcast,170,2011-11-24 06:53:00
1:53 AM,45.0,42.1,90,30.35,9.0,South,6.9,-,N/A,,Overcast,190,2011-11-24 07:53:00
2:53 AM,45.0,42.1,90,30.34,10.0,South,5.8,-,N/A,,Overcast,190,2011-11-24 08:53:00
3:53 AM,45.0,42.1,90,30.35,9.0,SSW,9.2,-,N/A,,Overcast,210,2011-11-24 09:53:00
4:53 AM,45.0,42.1,90,30.35,8.0,SSW,8.1,-,N/A,,Overcast,200,2011-11-24 10:53:00
5:53 AM,45.0,42.1,90,30.36,9.0,SSW,5.8,-,N/A,,Overcast,200,2011-11-24 11:53:00
6:53 AM,45.0,42.1,90,30.37,9.0,SSW,5.8,-,N/A,,Overcast,200,2011-11-24 12:53:00
7:53 AM,44.6,42.8,93,30.38,8.0,SSW,8.1,-,N/A,,Overcast,200,2011-11-24 13:53:00
8:53 AM,46.0,42.1,86,30.39,7.0,South,8.1,-,N/A,,Overcast,180,2011-11-24 14:53:00
9:53 AM,46.0,43.0,89,30.40,8.0,South,10.4,-,N/A,,Overcast,180,2011-11-24 15:53:00
10:53 AM,46.0,43.0,89,30.39,7.0,South,10.4,-,N/A,,Overcast,170,2011-11-24 16:53:00
11:53 AM,46.0,43.0,89,30.36,7.0,South,6.9,-,N/A,,Overcast,180,2011-11-24 17:53:00
12:53 PM,46.9,43.0,86,30.35,7.0,South,6.9,-,N/A,,Overcast,190,2011-11-24 18:53:00
1:53 PM,46.9,43.0,86,30.33,7.0,SSW,9.2,-,N/A,,Overcast,210,2011-11-24 19:53:00
2:53 PM,48.0,44.1,86,30.32,7.0,SSW,6.9,-,N/A,,Overcast,200,2011-11-24 20:53:00
3:14 PM,48.2,44.6,87,30.31,8.0,South,8.1,-,N/A,,Overcast,180,2011-11-24 21:14:00
3:53 PM,46.9,43.0,86,30.32,9.0,South,6.9,-,N/A,,Overcast,190,2011-11-24 21:53:00
4:53 PM,46.9,44.1,90,30.31,9.0,South,8.1,-,N/A,,Overcast,190,2011-11-24 22:53:00
5:53 PM,46.9,43.0,86,30.32,10.0,SSW,10.4,17.3,N/A,,Overcast,210,2011-11-24 23:53:00
6:53 PM,46.9,43.0,86,30.32,9.0,South,10.4,-,N/A,,Overcast,180,2011-11-25 00:53:00
7:53 PM,46.9,44.1,90,30.31,9.0,SSW,9.2,-,N/A,,Overcast,210,2011-11-25 01:53:00
8:53 PM,46.9,43.0,86,30.30,10.0,South,9.2,-,N/A,,Overcast,180,2011-11-25 02:53:00
9:53 PM,46.9,44.1,90,30.28,8.0,SSW,4.6,-,N/A,,Overcast,210,2011-11-25 03:53:00
10:53 PM,46.9,44.1,90,30.27,8.0,SW,6.9,-,N/A,,Overcast,220,2011-11-25 04:53:00
11:53 PM,46.0,45.0,96,30.26,6.0,SSW,4.6,-,N/A,,Overcast,200,2011-11-25 05:53:00